Вернуться в каталог

OBZOR-R 01

АктивенНаукаSSO
NORAD 67234·PAYLOAD·🇷🇺 Russia

Запущен Dec 25, 2025 с Plesetsk Cosmodrome

Loading…

Ближайшие Пролёты (ближайшие 24 часа)

TLE

СвежийSource: Space-Track

Эпоха: Sep 14, 2026, 10:44 UTC

1 67234U 25310A   26257.44786991  .00000081  00000-0  19173-4 0  9997
2 67234  97.9685 263.4640 0001289  79.2505 280.8850 14.75910440 38794

Отслеживайте OBZOR-R 01 в реальном времени с AllMySat

Download on the App Store